Flag for Germany Weather past 2 weeks in Lahr, Baden-Württemberg, Germany

Now
68 °F

Overcast.


Feels Like: 68 °F
Forecast: 50 / 82 °F
Wind: 5 mph from Northeast

Location: Lahr

Current Time: Jul 31, 2015 at 9:44:25 PM

Latest Report: Jul 31, 2015 at 9:00 PM


Visibility: 44 mi

Pressure: 29.90 "Hg

Humidity: 46%

Dew point: 46 °F

Location of LahrLocation

Historic Weather in Lahr — Graph

°F

Lahr temperature yesterday

Maximum temperature yesterday: 73 °F (at 6:00 PM)
Minimum temperature yesterday: 50 °F (at 3:00 AM)
Average temperature yesterday: 62 °F

Past Weeks' High & Low Weather Summary

 TemperatureHumidityPressure
High98 °F (Jul 17, 7:00 PM)96% (Jul 18, 6:00 AM)30.12 "Hg (Jul 18, 6:00 AM)
Low46 °F (Jul 31, 5:00 AM)22% (Jul 17, 2:00 PM)29.65 "Hg (Jul 24, 8:00 PM)
Average71 °F62%29.93 "Hg
* Reported Jul 16 8:00 PM — Jul 31 8:00 PM, Lahr, Weather by CustomWeather, © 2015

Note: Actual official high and low records may vary slightly from our data, if they occured in-between our weather recording intervals... More about our weather records

Advertising

Lahr weather history for previous 24 hours

 ConditionsComfort  
Time TempWeatherWind HumidityBarometerVisibility
8:00 PM
Fri, Jul 31
71 °FOvercast.8 mph41%29.90 "Hg43 mi
7:00 PM73 °FOvercast.8 mph38%29.90 "Hg43 mi
6:00 PM74 °FOvercast.9 mph37%29.93 "Hg43 mi
5:00 PM73 °FOvercast.8 mph40%29.94 "Hg43 mi
4:00 PM75 °FPartly sunny.7 mph39%29.95 "Hg40 mi
3:00 PM73 °FPartly sunny.7 mph41%29.97 "Hg37 mi
2:00 PM72 °FPartly sunny.7 mph46%30.00 "Hg37 mi
1:00 PM70 °FPartly sunny.6 mph48%30.02 "Hg37 mi
12:00 PM68 °FScattered clouds.5 mph49%30.05 "Hg37 mi
11:00 AM65 °FPassing clouds.6 mph54%30.06 "Hg37 mi
10:00 AM61 °FPassing clouds.3 mph62%30.08 "Hg37 mi
9:00 AM56 °FPassing clouds.2 mph75%30.10 "Hg37 mi
8:00 AM52 °FPassing clouds.1 mph83%30.10 "Hg37 mi
7:00 AM47 °FSunny.2 mph91%30.11 "Hg37 mi
5:00 AM46 °FPassing clouds.1 mph96%30.11 "Hg28 mi
4:00 AM47 °FClear.1 mph92%30.11 "Hg34 mi
3:00 AM49 °FClear.1 mph90%30.11 "Hg40 mi
2:00 AM52 °FClear.1 mph83%30.11 "Hg43 mi
1:00 AM53 °FClear.1 mph79%30.11 "Hg43 mi
11:00 PM
Thu, Jul 30
60 °FOvercast.1 mph62%30.08 "Hg43 mi
10:00 PM63 °FOvercast.5 mph53%30.06 "Hg43 mi
9:00 PM67 °FScattered clouds.1 mph44%30.02 "Hg43 mi
Weather by CustomWeather, © 2015

See weather overviewHow to use our weather pages